Saint Augustine, FL

7:43 PM EDT on October 01, 2016 (GMT -0400)
Saint Augustine

Weather History for KSGJ - March, 2013

Change the Weather History Date:

Saturday, March 2, 2013

  Actual Average Record
Temperature  
Mean Temperature 47 °F -  
Max Temperature 55 °F 67 °F 87 °F (2008)
Min Temperature 39 °F 50 °F 30 °F (1980)
Degree Days  
Heating Degree Days 18    
Moisture  
Dew Point 30 °F    
Average Humidity 53    
Maximum Humidity 79    
Minimum Humidity 27    
Precipitation  
Precipitation 0.00 in - - ()
Sea Level Pressure  
Sea Level Pressure 30.00 in    
Wind  
Wind Speed 9 mph (WNW)    
Max Wind Speed 20 mph    
Max Gust Speed 30 mph    
Visibility 10 miles    
Events      
Averages and records for this station are not official NWS values.
T = Trace of Precipitation, MM = Missing Value Source: NWS Daily Summary

Daily Weather History Graph

Daily Weather History Graph

Search for Another Location

Airport or City:

Trip Planner

Search our weather history database for the weather conditions in past years. The results will help you decide how hot, cold, wet, or windy it might be!

Date:

Astronomy

Mar. 02, 2013 Rise Set
Actual Time 6:49 AM EST 6:25 PM EST
Civil Twilight 6:25 AM EST 6:49 PM EST
Nautical Twilight 5:58 AM EST 7:17 PM EST
Astronomical Twilight 5:30 AM EST 7:44 PM EST
Moon 11:35 PM EST (3/2) 9:42 AM EST (3/2)
Length of Visible Light 12h 23m
Length of Day
11h 35m
Waning Gibbous, 74% of the Moon is Illuminated
Mar 2
Waning Gibbous
Mar 4
Last Quarter
Mar 11
New
Mar 19
First Quarter
Mar 27
Full

Hourly Weather History & Observations

Time (EST) Temp. Windchill Dew Point Humidity Pressure Visibility Wind Dir Wind Speed Gust Speed Precip Events Conditions
12:58 AM 48.0 °F - 35.1 °F 61% 30.02 in 10.0 mi West 8.1 mph - N/A   Clear
1:58 AM 46.9 °F - 35.1 °F 63% 30.02 in 10.0 mi West 6.9 mph - N/A   Clear
2:58 AM 46.0 °F 41.9 °F 34.0 °F 63% 30.01 in 10.0 mi West 8.1 mph - N/A   Clear
3:58 AM 46.0 °F 42.5 °F 34.0 °F 63% 30.01 in 10.0 mi WNW 6.9 mph - N/A   Clear
4:58 AM 44.1 °F 40.8 °F 34.0 °F 68% 30.02 in 10.0 mi WNW 5.8 mph - N/A   Clear
5:58 AM 43.0 °F 41.3 °F 34.0 °F 71% 30.02 in 10.0 mi NW 3.5 mph - N/A   Clear
6:58 AM 39.9 °F 37.8 °F 34.0 °F 79% 30.02 in 10.0 mi WSW 3.5 mph - N/A   Clear
7:58 AM 42.1 °F 39.2 °F 36.0 °F 79% 30.03 in 10.0 mi West 4.6 mph - N/A   Clear
8:58 AM 46.9 °F - 36.0 °F 66% 30.04 in 10.0 mi Variable 4.6 mph - N/A   Clear
9:58 AM 51.1 °F - 30.9 °F 46% 30.02 in 10.0 mi Variable 6.9 mph - N/A   Clear
10:58 AM 53.1 °F - 28.0 °F 38% 30.00 in 10.0 mi West 16.1 mph 28.8 mph N/A   Clear
11:58 AM 55.9 °F - 24.1 °F 29% 29.98 in 10.0 mi West 15.0 mph 29.9 mph N/A   Clear
12:58 PM 55.9 °F - 21.9 °F 27% 29.96 in 10.0 mi West 19.6 mph 28.8 mph N/A   Clear
1:58 PM 55.9 °F - 23.0 °F 28% 29.95 in 10.0 mi WNW 17.3 mph 26.5 mph N/A   Clear
2:58 PM 55.0 °F - 24.1 °F 30% 29.94 in 10.0 mi West 15.0 mph 27.6 mph N/A   Clear
3:58 PM 55.0 °F - 25.0 °F 31% 29.94 in 10.0 mi WNW 15.0 mph 21.9 mph N/A   Clear
4:58 PM 54.0 °F - 27.0 °F 35% 29.94 in 10.0 mi NW 13.8 mph 19.6 mph N/A   Scattered Clouds
5:58 PM 51.1 °F - 28.0 °F 41% 29.96 in 10.0 mi WNW 12.7 mph 20.7 mph N/A   Partly Cloudy
6:58 PM 46.9 °F - 28.9 °F 50% 30.00 in 10.0 mi NNW 12.7 mph - N/A   Clear
7:58 PM 44.1 °F 38.1 °F 28.9 °F 55% 30.01 in 10.0 mi NW 11.5 mph - N/A   Clear
8:58 PM 42.1 °F 36.1 °F 28.9 °F 60% 30.04 in 10.0 mi NW 10.4 mph - N/A   Clear
9:58 PM 41.0 °F 37.1 °F 28.0 °F 60% 30.05 in 10.0 mi WNW 5.8 mph - N/A   Clear
10:58 PM 39.9 °F 36.7 °F 28.9 °F 65% 30.05 in 10.0 mi West 4.6 mph - N/A   Clear
11:58 PM 39.0 °F 34.8 °F 28.9 °F 67% 30.03 in 10.0 mi WNW 5.8 mph - N/A   Clear